Weather History for KCPC - March, 2014

Change the Weather History Date:

Friday, March 28, 2014

  Actual Average (KLBT) Record (KLBT)
Temperature  
Mean Temperature 56 °F 57 °F  
Max Temperature 71 °F 70 °F 85 °F (2007)
Min Temperature 41 °F 45 °F 27 °F (2001)
Degree Days  
Heating Degree Days 9 8  
Month to date heating degree days 324  
Since 1 July heating degree days 2554  
Cooling Degree Days 0 0  
Month to date cooling degree days 0  
Year to date cooling degree days 3  
Growing Degree Days 6 (Base 50)    
Moisture  
Dew Point 53 °F    
Average Humidity 82    
Maximum Humidity 97    
Minimum Humidity 57    
Precipitation  
Precipitation 0.05 in 0.11 in 0.69 in (2009)
Month to date precipitation 2.97  
Year to date precipitation 8.84  
Sea Level Pressure  
Sea Level Pressure 30.21 in    
Wind  
Wind Speed 3 mph (SSE)    
Max Wind Speed 17 mph    
Max Gust Speed 25 mph    
Visibility 9 miles    
Events Rain    
T = Trace of Precipitation, MM = Missing Value Source: NWS Daily Summary

Daily Weather History Graph

Daily Weather History Graph

Search for Another Location

Airport or City:

Trip Planner

Search our weather history database for the weather conditions in past years. The results will help you decide how hot, cold, wet, or windy it might be!

Date:

Astronomy

Mar. 28, 2014 Rise Set
Actual Time 7:07 AM EDT 7:32 PM EDT
Civil Twilight 6:42 AM EDT 7:57 PM EDT
Nautical Twilight 6:12 AM EDT 8:27 PM EDT
Astronomical Twilight 5:42 AM EDT 8:57 PM EDT
Moon 5:31 AM EDT 5:31 PM EDT
Length of Visible Light 13h 15m
Length of Day
12h 25m
Waning Crescent, 6% of the Moon is Illuminated
Mar 28
Waning Crescent
Mar 30
New
Apr 7
First Quarter
Apr 15
Full
Apr 22
Last Quarter

Hourly Weather History & Observations

Time (EDT) Temp. Windchill Dew Point Humidity Pressure Visibility Wind Dir Wind Speed Gust Speed Precip Events Conditions
12:15 AM 44.8 °F - 38.1 °F 77% 30.31 in 10.0 mi Calm Calm - N/A   Scattered Clouds
12:35 AM 44.4 °F - 38.5 °F 80% 30.31 in 10.0 mi Calm Calm - N/A   Clear
12:55 AM 44.6 °F - 38.8 °F 80% 30.30 in 10.0 mi Calm Calm - N/A   Clear
1:15 AM 44.6 °F - 39.2 °F 81% 30.29 in 10.0 mi Calm Calm - N/A   Clear
1:35 AM 43.7 °F - 39.2 °F 84% 30.29 in 10.0 mi Calm Calm - N/A   Clear
1:55 AM 44.1 °F - 39.2 °F 83% 30.29 in 10.0 mi Calm Calm - N/A   Scattered Clouds
2:15 AM 43.0 °F - 39.0 °F 86% 30.29 in 10.0 mi Calm Calm - N/A   Scattered Clouds
2:35 AM 41.7 °F 39.8 °F 39.0 °F 90% 30.27 in 10.0 mi SE 3.5 mph - N/A   Clear
2:55 AM 45.0 °F - 41.4 °F 87% 30.27 in 10.0 mi Calm Calm - N/A   Clear
3:15 AM 46.4 °F - 42.8 °F 87% 30.26 in 10.0 mi Calm Calm - N/A   Clear
3:35 AM 46.0 °F - 41.5 °F 84% 30.27 in 10.0 mi Calm Calm - N/A   Clear
3:55 AM 44.1 °F - 40.8 °F 88% 30.26 in 10.0 mi Calm Calm - N/A   Clear
4:15 AM 46.2 °F - 42.3 °F 86% 30.26 in 10.0 mi Calm Calm - N/A   Clear
4:35 AM 46.8 °F - 43.5 °F 88% 30.25 in 10.0 mi Calm Calm - N/A   Clear
4:55 AM 46.6 °F - 43.5 °F 89% 30.25 in 10.0 mi Calm Calm - N/A   Clear
5:15 AM 46.8 °F - 43.5 °F 88% 30.25 in 10.0 mi Calm Calm - N/A   Clear
5:35 AM 45.5 °F - 42.1 °F 88% 30.25 in 10.0 mi Calm Calm - N/A   Clear
5:55 AM 44.2 °F - 41.5 °F 90% 30.24 in 10.0 mi Calm Calm - N/A   Clear
6:15 AM 47.1 °F - 45.3 °F 93% 30.24 in 10.0 mi Calm Calm - N/A   Clear
6:35 AM 48.9 °F - 47.1 °F 93% 30.24 in 10.0 mi Calm Calm - N/A   Clear
6:55 AM 50.0 °F - 47.5 °F 91% 30.24 in 10.0 mi Calm Calm - N/A   Clear
7:15 AM 49.1 °F - 47.3 °F 93% 30.24 in 10.0 mi Calm Calm - N/A   Mostly Cloudy
7:35 AM 47.5 °F - 45.7 °F 93% 30.24 in 10.0 mi Calm Calm - N/A   Mostly Cloudy
7:55 AM 51.3 °F - 48.9 °F 92% 30.25 in 10.0 mi Calm Calm - N/A   Scattered Clouds
8:15 AM 53.6 °F - 50.0 °F 88% 30.24 in 10.0 mi SE 3.5 mph - N/A   Clear
8:35 AM 55.4 °F - 50.5 °F 84% 30.24 in 10.0 mi SE 4.6 mph - N/A   Clear
8:55 AM 57.2 °F - 51.4 °F 81% 30.23 in 10.0 mi SE 3.5 mph - N/A   Clear
9:15 AM 60.1 °F - 51.8 °F 74% 30.24 in 10.0 mi SSE 4.6 mph - N/A   Clear
9:35 AM 62.4 °F - 52.9 °F 71% 30.24 in 10.0 mi SSE 5.8 mph - N/A   Clear
9:55 AM 65.1 °F - 53.6 °F 66% 30.26 in 10.0 mi South 6.9 mph - N/A   Mostly Cloudy
10:15 AM 65.3 °F - 53.8 °F 66% 30.26 in 10.0 mi South 6.9 mph - N/A   Overcast
10:35 AM 65.5 °F - 54.1 °F 67% 30.26 in 10.0 mi South 5.8 mph - N/A   Overcast
10:55 AM 66.9 °F - 54.9 °F 65% 30.25 in 10.0 mi SSE 8.1 mph - N/A   Overcast
11:15 AM 68.9 °F - 55.8 °F 63% 30.24 in 10.0 mi SSE 10.4 mph - N/A   Mostly Cloudy
11:35 AM 71.1 °F - 56.3 °F 60% 30.22 in 10.0 mi SSE 13.8 mph 21.9 mph N/A   Scattered Clouds
11:55 AM 71.8 °F - 55.9 °F 57% 30.22 in 10.0 mi SSE 16.1 mph 20.7 mph N/A   Scattered Clouds
12:15 PM 71.4 °F - 55.6 °F 57% 30.22 in 10.0 mi South 17.3 mph 21.9 mph N/A   Mostly Cloudy
12:35 PM 71.1 °F - 55.4 °F 58% 30.21 in 10.0 mi South 13.8 mph 25.3 mph N/A   Overcast
12:55 PM 69.8 °F - 56.3 °F 62% 30.21 in 10.0 mi South 16.1 mph 23.0 mph N/A   Overcast
1:15 PM 71.2 °F - 56.8 °F 60% 30.20 in 10.0 mi South 16.1 mph 21.9 mph N/A   Overcast
1:35 PM 69.8 °F - 56.8 °F 63% 30.19 in 10.0 mi SSE 15.0 mph 23.0 mph N/A   Overcast
1:55 PM 70.0 °F - 57.2 °F 64% 30.19 in 10.0 mi South 12.7 mph 24.2 mph N/A   Overcast
2:15 PM 69.8 °F - 58.1 °F 66% 30.18 in 10.0 mi South 13.8 mph 21.9 mph N/A   Overcast
2:35 PM 68.5 °F - 58.5 °F 70% 30.17 in 10.0 mi South 15.0 mph 24.2 mph N/A   Overcast
2:55 PM 67.5 °F - 59.2 °F 75% 30.17 in 10.0 mi South 13.8 mph 24.2 mph N/A   Overcast
3:15 PM 68.0 °F - 59.4 °F 74% 30.16 in 10.0 mi SSW 11.5 mph 18.4 mph N/A   Overcast
3:35 PM 68.4 °F - 59.2 °F 72% 30.16 in 10.0 mi South 8.1 mph - N/A   Overcast
3:55 PM 68.4 °F - 57.9 °F 69% 30.16 in 10.0 mi South 15.0 mph - N/A   Overcast
4:15 PM 68.7 °F - 58.1 °F 69% 30.15 in 10.0 mi South 10.4 mph 18.4 mph N/A   Overcast
4:35 PM 68.0 °F - 58.5 °F 71% 30.15 in 10.0 mi South 9.2 mph - N/A   Overcast
4:55 PM 66.7 °F - 58.8 °F 76% 30.15 in 10.0 mi SSE 10.4 mph - N/A   Overcast
5:15 PM 66.7 °F - 59.4 °F 77% 30.15 in 10.0 mi SSE 8.1 mph - N/A   Overcast
5:35 PM 66.6 °F - 59.2 °F 77% 30.16 in 10.0 mi South 9.2 mph - N/A   Overcast
5:55 PM 63.5 °F - 61.2 °F 92% 30.16 in 2.5 mi SSE 5.8 mph - N/A Rain Rain
6:15 PM 63.5 °F - 61.9 °F 94% 30.15 in 4.0 mi SSE 4.6 mph - N/A   Light Drizzle
6:35 PM 63.5 °F - 61.5 °F 93% 30.14 in 5.0 mi South 4.6 mph - N/A   Overcast
6:55 PM 63.3 °F - 61.5 °F 94% 30.14 in 10.0 mi SSE 3.5 mph - N/A   Overcast
7:15 PM 63.0 °F - 61.0 °F 93% 30.14 in 10.0 mi South 4.6 mph - N/A   Overcast
7:35 PM 62.8 °F - 61.0 °F 94% 30.15 in 10.0 mi SSE 4.6 mph - N/A   Overcast
7:55 PM 62.6 °F - 61.0 °F 94% 30.15 in 10.0 mi SSE 5.8 mph - N/A   Overcast
8:15 PM 62.6 °F - 60.8 °F 94% 30.15 in 10.0 mi SSE 4.6 mph - N/A   Overcast
8:35 PM 62.2 °F - 60.8 °F 95% 30.15 in 10.0 mi SSE 4.6 mph - N/A   Overcast
8:55 PM 62.2 °F - 60.4 °F 94% 30.15 in 10.0 mi South 3.5 mph - N/A Rain Light Rain
9:15 PM 62.1 °F - 60.3 °F 94% 30.15 in 10.0 mi SSE 5.8 mph - N/A Rain Rain
9:35 PM 61.9 °F - 60.3 °F 94% 30.15 in 7.0 mi South 4.6 mph - N/A   Heavy Drizzle
9:55 PM 61.7 °F - 60.4 °F 96% 30.14 in 5.0 mi Calm Calm - 0.01 in Rain Rain
10:15 PM 61.7 °F - 60.4 °F 96% 30.14 in 7.0 mi SSE 3.5 mph - N/A   Drizzle
10:35 PM 61.7 °F - 60.4 °F 96% 30.14 in 7.0 mi Calm Calm - N/A   Drizzle
10:55 PM 61.7 °F - 60.4 °F 96% 30.13 in 5.0 mi SSE 3.5 mph - 0.01 in   Drizzle
11:15 PM 61.5 °F - 60.4 °F 96% 30.13 in 4.0 mi Calm Calm - 0.01 in Rain Heavy Rain
11:35 PM 61.3 °F - 60.4 °F 97% 30.13 in 4.0 mi Calm Calm - 0.02 in Rain Rain
11:55 PM 61.7 °F - 60.8 °F 97% 30.12 in 3.0 mi SE 3.5 mph - 0.03 in   Heavy Drizzle